Location: Chervonnoye
(48.6000°N, 34.4000°E)
Time: 07:34:32
(UTC+00:00)

Nadezhda 1 Rocket - Pass Details

Date: 18 April 2021
Orbit: 940 x 1006 km, 83.0° (Epoch: 13 May)

Event Time Altitude Azimuth Distance (km) Brightness Sun altitude
Exits shadow 22:26:49 83° 144° (SE) 1,019 3.9 -29.4°
Maximum altitude 22:27:01 85° 98° (E) 1,016 3.9 -29.4°
Drops below altitude 10° 22:33:27 10° 10° (N) 2,783 7.3 -29.2°
Sets 22:35:59 0° 10° (N) 3,731 8.3 -29.0°
